• In Netherlands
  • List of Countries
  • For 7 days
  • Water Temperature
  • Satellite Maps
  • Weather Map
  • Weather Widgets
  • user-avatar
    Login

    Hourly Weather Bregenz

    Today, 26 April, Wednesday

    Time Temperature Precipitation Wind Pressure Humidity
    00:00 +2°C° 1 mm 2 mps 638 mmHg 97%
    01:00 +2°C° 0 mm 2 mps 637 mmHg 97%
    02:00 +1°C° 1.6 mm 2 mps 637 mmHg 97%
    03:00 +1°C° 1.6 mm 2 mps 637 mmHg 97%
    04:00 +2°C° 1.6 mm 1 mps 637 mmHg 97%
    05:00 +2°C° 1.3 mm 1 mps 637 mmHg 97%
    06:00 +2°C° 1.3 mm 1 mps 637 mmHg 97%
    07:00 +1°C° 0 mm 1 mps 637 mmHg 97%
    08:00 +1°C° 1.2 mm 1 mps 637 mmHg 97%
    09:00 +1°C° 1.2 mm 1 mps 638 mmHg 97%
    10:00 +1°C° 1.2 mm 1 mps 638 mmHg 98%
    11:00 +2°C° 0.8 mm 1 mps 638 mmHg 98%
    12:00 +1°C° 0.8 mm 2 mps 638 mmHg 97%
    13:00 +1°C° 0 mm 1 mps 638 mmHg 98%
    14:00 +1°C° 0.6 mm 1 mps 638 mmHg 98%
    15:00 +1°C° 0.6 mm 1 mps 638 mmHg 97%
    16:00 +1°C° 0.6 mm 1 mps 638 mmHg 97%
    17:00 +1°C° 0.7 mm 1 mps 638 mmHg 98%
    18:00 +1°C° 0.7 mm 1 mps 638 mmHg 98%
    19:00 0°C° 0.7 mm 1 mps 638 mmHg 98%
    20:00 0°C° 0.8 mm 1 mps 638 mmHg 98%
    21:00 -1°C° 0.8 mm 1 mps 638 mmHg 98%
    22:00 -2°C° 0.8 mm 0 mps 638 mmHg 98%
    23:00 -2°C° 1 mm 0 mps 638 mmHg 98%

    Tomorrow, 27 April, Thursday

    Time Temperature Precipitation Wind Pressure Humidity
    00:00 -2°C° 1 mm 0 mps 638 mmHg 98%
    01:00 -2°C° 1 mm 0 mps 638 mmHg 98%
    02:00 -2°C° 0.6 mm 0 mps 638 mmHg 98%
    03:00 -3°C° 0.6 mm 0 mps 638 mmHg 98%
    04:00 -3°C° 0.6 mm 0 mps 638 mmHg 98%
    05:00 -2°C° 0.4 mm 0 mps 639 mmHg 98%
    06:00 -1°C° 0.4 mm 1 mps 639 mmHg 98%
    07:00 0°C° 0.4 mm 1 mps 639 mmHg 98%
    08:00 0°C° 0.6 mm 1 mps 639 mmHg 98%
    09:00 0°C° 0.6 mm 1 mps 639 mmHg 98%
    10:00 +1°C° 0.6 mm 1 mps 640 mmHg 98%
    11:00 -1°C° 0.5 mm 2 mps 640 mmHg 97%
    12:00 -1°C° 0.5 mm 2 mps 640 mmHg 97%
    13:00 +1°C° 0.5 mm 2 mps 640 mmHg 97%
    14:00 +1°C° 0.7 mm 2 mps 640 mmHg 97%
    15:00 -1°C° 0.7 mm 2 mps 640 mmHg 97%
    16:00 -1°C° 0.7 mm 2 mps 640 mmHg 97%
    17:00 +1°C° 0.7 mm 1 mps 639 mmHg 97%
    18:00 +1°C° 0.7 mm 1 mps 639 mmHg 98%
    19:00 0°C° 0.7 mm 1 mps 639 mmHg 98%
    20:00 0°C° 0.7 mm 1 mps 639 mmHg 98%
    21:00 -1°C° 0.7 mm 1 mps 639 mmHg 98%
    22:00 -1°C° 0.7 mm 1 mps 639 mmHg 98%
    23:00 -1°C° 1.2 mm 1 mps 639 mmHg 98%

    Day after tomorrow, 28 April, Friday

    Time Temperature Precipitation Wind Pressure Humidity
    00:00 -3°C° 1.2 mm 2 mps 639 mmHg 98%
    01:00 -3°C° 1.2 mm 2 mps 638 mmHg 98%
    02:00 -3°C° 1.8 mm 2 mps 638 mmHg 98%
    03:00 -3°C° 1.8 mm 2 mps 638 mmHg 98%
    04:00 -4°C° 1.8 mm 2 mps 638 mmHg 99%
    05:00 -4°C° 1.6 mm 2 mps 638 mmHg 99%
    06:00 -4°C° 1.6 mm 2 mps 638 mmHg 99%
    07:00 -4°C° 1.6 mm 2 mps 638 mmHg 99%
    08:00 -4°C° 1.4 mm 2 mps 639 mmHg 99%
    09:00 -4°C° 1.4 mm 3 mps 639 mmHg 99%
    10:00 -4°C° 1.4 mm 3 mps 639 mmHg 98%
    11:00 -4°C° 1.4 mm 3 mps 639 mmHg 98%
    12:00 -4°C° 1.4 mm 3 mps 639 mmHg 98%
    13:00 -4°C° 1.4 mm 3 mps 640 mmHg 98%
    14:00 -2°C° 0.7 mm 3 mps 640 mmHg 98%
    15:00 -2°C° 0.7 mm 2 mps 641 mmHg 98%
    16:00 -2°C° 0.7 mm 2 mps 641 mmHg 98%
    17:00 -3°C° 0.2 mm 2 mps 641 mmHg 98%
    18:00 -3°C° 0.2 mm 2 mps 641 mmHg 98%
    19:00 -4°C° 0.2 mm 2 mps 642 mmHg 98%
    20:00 -6°C° 0 mm 2 mps 642 mmHg 97%
    21:00 -7°C° 0 mm 1 mps 641 mmHg 97%
    22:00 -9°C° 0 mm 1 mps 641 mmHg 97%
    23:00 -8°C° 0 mm 1 mps 642 mmHg 96%

    29 April, Saturday

    Time Temperature Precipitation Wind Pressure Humidity
    00:00 -9°C° 0 mm 2 mps 642 mmHg 96%
    01:00 -9°C° 0 mm 2 mps 642 mmHg 95%
    02:00 -9°C° 0 mm 2 mps 642 mmHg 95%
    03:00 -9°C° 0 mm 2 mps 642 mmHg 95%
    04:00 -10°C° 0 mm 2 mps 642 mmHg 94%
    05:00 -8°C° 0 mm 2 mps 643 mmHg 94%
    06:00 -4°C° 0 mm 1 mps 643 mmHg 94%
    07:00 -3°C° 0 mm 1 mps 643 mmHg 94%
    08:00 -1°C° 0 mm 1 mps 644 mmHg 95%
    09:00 0°C° 0 mm 1 mps 644 mmHg 95%
    10:00 +1°C° 0 mm 0 mps 644 mmHg 95%
    11:00 +3°C° 0 mm 1 mps 644 mmHg 94%
    12:00 +3°C° 0 mm 1 mps 643 mmHg 93%
    13:00 +4°C° 0 mm 1 mps 643 mmHg 92%
    14:00 +4°C° 0 mm 1 mps 643 mmHg 91%
    15:00 +4°C° 0 mm 1 mps 643 mmHg 90%
    16:00 +4°C° 0 mm 1 mps 643 mmHg 90%
    17:00 +3°C° 0 mm 1 mps 643 mmHg 92%
    18:00 +1°C° 0 mm 2 mps 643 mmHg 94%
    19:00 +1°C° 0 mm 2 mps 642 mmHg 97%
    20:00 -2°C° 0 mm 2 mps 642 mmHg 96%
    21:00 -3°C° 0 mm 2 mps 642 mmHg 96%
    22:00 -4°C° 0 mm 2 mps 642 mmHg 95%
    23:00 -5°C° 0 mm 2 mps 642 mmHg 95%

    30 April, Sunday

    Time Temperature Precipitation Wind Pressure Humidity
    00:00 -5°C° 0 mm 2 mps 642 mmHg 94%
    01:00 -6°C° 0 mm 2 mps 642 mmHg 94%
    02:00 -6°C° 0 mm 2 mps 642 mmHg 94%
    03:00 -6°C° 0 mm 2 mps 642 mmHg 93%
    04:00 -6°C° 0 mm 2 mps 642 mmHg 93%
    05:00 -5°C° 0 mm 2 mps 642 mmHg 92%
    06:00 -3°C° 0 mm 2 mps 642 mmHg 90%
    07:00 -2°C° 0 mm 2 mps 643 mmHg 89%
    08:00 +1°C° 0 mm 2 mps 643 mmHg 87%
    09:00 +3°C° 0 mm 2 mps 643 mmHg 86%
    10:00 +4°C° 0 mm 2 mps 643 mmHg 84%
    11:00 +5°C° 0 mm 2 mps 643 mmHg 83%
    12:00 +6°C° 0 mm 2 mps 643 mmHg 82%
    13:00 +6°C° 0 mm 2 mps 643 mmHg 81%
    14:00 +7°C° 0 mm 2 mps 642 mmHg 82%
    15:00 +7°C° 0 mm 2 mps 642 mmHg 82%
    16:00 +7°C° 0 mm 2 mps 642 mmHg 83%
    17:00 +6°C° 0 mm 2 mps 642 mmHg 87%
    18:00 +4°C° 0 mm 2 mps 641 mmHg 91%
    19:00 +3°C° 0 mm 2 mps 641 mmHg 95%
    20:00 +1°C° 0 mm 3 mps 641 mmHg 94%
    21:00 0°C° 0 mm 3 mps 640 mmHg 94%
    22:00 -1°C° 0 mm 3 mps 640 mmHg 93%
    23:00 -1°C° 0 mm 3 mps 640 mmHg 93%

    1 May, Monday

    Time Temperature Precipitation Wind Pressure Humidity
    00:00 -2°C° 0 mm 3 mps 640 mmHg 93%
    01:00 -2°C° 0 mm 3 mps 639 mmHg 92%
    02:00 -2°C° 0 mm 3 mps 639 mmHg 92%
    03:00 -2°C° 0 mm 3 mps 639 mmHg 92%
    04:00 -2°C° 0 mm 3 mps 639 mmHg 92%
    05:00 -1°C° 0 mm 2 mps 639 mmHg 90%
    06:00 +1°C° 0 mm 2 mps 639 mmHg 88%
    07:00 +2°C° 0 mm 2 mps 639 mmHg 86%
    08:00 +4°C° 0 mm 2 mps 640 mmHg 84%
    09:00 +5°C° 0 mm 2 mps 640 mmHg 82%
    10:00 +7°C° 0 mm 2 mps 641 mmHg 80%
    11:00 +5°C° 0.6 mm 3 mps 641 mmHg 84%
    12:00 +4°C° 0.6 mm 3 mps 641 mmHg 87%
    13:00 +4°C° 0.6 mm 3 mps 641 mmHg 91%
    14:00 +3°C° 1.6 mm 3 mps 641 mmHg 93%
    15:00 +2°C° 1.6 mm 3 mps 641 mmHg 95%
    16:00 +1°C° 1.6 mm 3 mps 641 mmHg 97%
    17:00 +1°C° 1.7 mm 3 mps 641 mmHg 97%
    18:00 0°C° 1.7 mm 3 mps 642 mmHg 97%
    19:00 0°C° 1.7 mm 3 mps 642 mmHg 97%
    20:00 -1°C° 1.4 mm 3 mps 643 mmHg 97%
    21:00 -1°C° 1.4 mm 3 mps 643 mmHg 97%
    22:00 -1°C° 1.4 mm 2 mps 643 mmHg 97%
    23:00 -1°C° 1.3 mm 2 mps 644 mmHg 97%
    Show more